Hourly Data Report for May 29, 2020

TORONTO CITY
ONTARIO
Current Station Operator: ECCC - MSC

43°40'00.000" N
79°24'00.000" W
112.50 m
6158355
71508
XTO

Download Data

Hourly Data (May 2020)
Hourly Data Report for May 29, 2020
TIME
LST
Temp Definition
°C
Dew Point Definition
°C
Rel Hum Definition
%
Precip. Amount Definition
mm

Wind Dir Definition
10's deg

Wind Spd Definition
km/h
Visibility Definition
km
Stn Press Definition
kPa
Hmdx Definition


Wind Chill Definition


Weather Definition


00:00 18.3 16.5 89 0.0       99.73     LegendNANA
01:00 17.8 16.0 89 0.0       99.66     LegendNANA
02:00 18.1 16.2 89 0.0       99.68     LegendNANA
03:00 18.1 16.2 89 0.0       99.63     LegendNANA
04:00 18.0 16.2 89 0.0       99.66     LegendNANA
05:00 17.9 15.8 87 0.0       99.64     LegendNANA
06:00 18.6 16.2 86 0.0       99.69     LegendNANA
07:00 19.9 16.4 80 0.0       99.73     LegendNANA
08:00 20.6 16.4 77 0.0       99.71 25   LegendNANA
09:00 21.8 17.0 74 0.0       99.64 27   LegendNANA
10:00 19.6 16.0 80 0.9       99.66     LegendNANA
11:00 19.6 17.4 87 1.3       99.57     LegendNANA
12:00 22.1 18.4 80 0.0       99.46 28   LegendNANA
13:00 21.6 16.4 72 0.0       99.41 26   LegendNANA
14:00 22.8 16.3 67 0.0       99.32 28   LegendNANA
15:00 21.7 14.3 63 0.2       99.35 25   LegendNANA
16:00 19.9 14.9 73 0.3       99.41     LegendNANA
17:00 17.8 14.2 80 0.7       99.49     LegendNANA
18:00 17.1 13.0 77 0.0       99.55     LegendNANA
19:00 16.9 10.7 67 0.0       99.67     LegendNANA
20:00 16.7 10.4 66 0.0       99.75     LegendNANA
21:00 16.7 10.5 67 0.0       99.84     LegendNANA
22:00 15.6 9.6 67 0.0       99.88     LegendNANA
23:00 14.9 9.9 72 0.0       99.90     LegendNANA

Notes on Data Quality.

Legend

  • E = Estimated
  • M = Missing
  • NA = Not Available*
  • [empty] = Indicates an unobserved value
Date modified: